Member area
Imprimable
Challenges > Delhalle - Jurbise, 21/09/2013, BEL - La Forestière
List of reports > Delhalle - Result
Search: Page: [1]
97 Entries
 
Complains are not accepted anymore. Results are final.
PlaceNrNameAgeNATLeagueTeamRealTimeTkmMoy.ScrPtsCity
1.230SANCHEZ POSADA Luis53BELUSBWCACE51:5751:583:43 16.1611984RHODE ST GENESE
2.6BULTOT Christian55BELARCHJOGGPLUS52:2652:283:45 16.0215971SCHALTIN
3.677PAULUS Philippe52BELESM52:5752:593:48 15.8519958MONT-SUR-MARCHIENNE
4.921ROSSI Claude55BELJOGGPLUS53:1653:163:49 15.7720951YVOIR
5.165SCHALKWIJK Benoit53BELARCH53:1953:193:49 15.7621949SOMBREFFE
6.1869SANTOS Doroteo52ESPOXY200054:2654:313:54 15.4126923
7.1835VANDERLINDEN Marc55BELTRAINING 755:2355:233:58 15.1733900BRUXELLES
8.1770MANIQUET Michel50BELUAC56:5557:014:05 14.7342865BIESME
9.86TENRET Daniel59BELBOUFFIOLS58:2058:274:11 14.3757827GERPINNES
10.983CULLOP Paul52BELENJAMBEE58:3458:354:12 14.3458822BRUXELLES
11.765MATERNE Daniel55BELUSBWMYSTERE58:4358:454:12 14.3061817BRAINE-L'ALLEUD
12.1746DE BIE Walter56BELHOOIBERGLOPERS58:4458:534:13 14.2764815HAACHT
13.1930DEBLANDER Bruno53BEL58:4858:564:13 14.2665813BRAINE-L'ALLEUD
14.1816DEMOUSTIER Christian58BELOBT59:0359:034:14 14.2367807ERBISOEUL
15.1954OREINS Pierre52BEL59:0359:084:14 14.2168806
16.1795SCOUBEAU Olivier50BELHAC59:1959:314:16 14.1270800SPIENNES
17.431MARTIN Eric50BEL59:1959:484:17 14.0577795WANDRE
18.1999DESMET Alain50BEL1:00:011:00:204:19 13.9286776
19.1808RICOUR Serge50BELHAC1:00:361:00:424:21 13.8494760
20.1878DEREUME Pascal51BELTHÉODO TEMPO1:00:451:01:014:22 13.77100753
21.396SOMERS Ludo50BELHAMURABI1:01:341:01:484:25 13.59106734LINT
22.194AUBERT Serge58BELDONDORGANES1:01:511:01:544:26 13.57107729GERPINNES
23.705VANDEVENNE Patrick50BELUSBWUSBW1:01:591:02:144:27 13.50112722WATERLOO
24.498HEYNDRICKX Jan51BELHAMURABI1:02:131:02:184:27 13.49113718BERTEM
25.1734CARDINAL Pascal51BEL1:02:181:02:354:29 13.42117713CUESMES
26.1913BINKERT Marc52CHELDLV1:02:541:03:024:31 13.33123699
27.653SERON Benoit52BEL1:02:581:03:054:31 13.32124697MALONNE
28.1838COUWEZ Dany53BELVERTIGO1:02:581:03:084:31 13.31125697
29.500CHARLIER Jacky53BELARCH1:03:561:03:584:35 13.13131676GOZIN
30.270VOLON Patrick54BELFACMPW - HJM1:04:041:04:084:35 13.10134671LIEGE
31.224BARBIER Yves53BELUSBWSO BARLIN1:04:101:04:264:37 13.04137667BRAINE-L'ALLEUD
32.255ADAMS Ludo51BELAVN1:04:191:04:284:37 13.03138664MERKSPLAS
33.1850MALBRECQ Bernard56BELTHEODO TEMPO1:04:131:04:334:37 13.02139665
34.698DEMIERBE Freddy59BELBOUFFIOLS1:05:071:05:144:40 12.88150642CHATELET
35.216DECHAMPS Henri51BELFOUL PRWZ1:05:261:05:504:43 12.76154634BONEFFE
36.458DE WULF Luc58BELESM1:05:311:05:514:43 12.76156631MARCHIENNE-AU-PONT
37.1855DUTRY Jean-Marc50BELTOTAL1:05:391:05:574:43 12.74158628FAYT-LEZ-MANAGE
38.184LEFEBVRE Daniel58BELETCHIEVR1:06:021:06:194:45 12.67163618CHIEVRES
39.325CONIGLIO Mario50BELUACUAC1:06:271:06:314:46 12.63169607HAM SUR HEURE
40.1821JUGNON Michel53BELESM1:06:201:06:454:47 12.59176604LEERNES
41.1860DEVIERE Michel50BELLA FORESTIERE1:07:261:07:354:50 12.43184581MONS
42.150THIROT Alain55BELJOGGANS1:07:391:07:464:51 12.40189574ANDERLECHT
43.453SEGHERS Marcel54BELESM1:08:081:08:194:53 12.30192563FORCHIES LA MARCHE
44.55ROBERTI DE WINGHE Max58BELLACERONVAU1:08:051:08:254:54 12.28195562ARCHENNES
45.561HAINAUT Charles54BEL1:08:351:08:434:55 12.23200551GERPINNES
46.691JADOT Pierre53BELESMESM1:08:361:08:594:56 12.18207546MARCINELLE
47.1759FLAMENT Eddy50BELFORESTIERE1:08:541:09:044:56 12.16208540MONS
48.1893CORDUANT Christophe52BEL1:09:021:09:154:57 12.13212535
49.993LELOUP Stephan59BELRIWA1:09:271:09:374:59 12.07218524ROSIERES
50.64DEWIGNE Bernard56BELCSDY1:09:091:09:434:59 12.05221526OTTIGNIES
51.569CLEMENT Serge53BELHRC1:10:121:10:275:02 11.92237499HACHY
52.1815BAUTHIER Christian59BELLA FORESTIERE1:10:531:11:285:07 11.75253477
53.1953SABBE Nicolas50BEL1:11:581:12:185:10 11.62263453
54.28ERNOULD Jean Pol58BELCSFMYSTERE1:12:041:12:205:10 11.61264452UCCLE
55.1932WAROUX Daniel52BEL1:12:241:12:545:13 11.52273440
56.1931MELON Jean-Marc55BEL1:12:241:12:555:13 11.52274439
57.413LIVEMONT Emmanuel52BELRRTC1:12:451:13:235:15 11.45276433SUARLEE
58.1945HECQ Jean-Pol54BEL1:13:071:13:285:15 11.43279425
59.276MARIËN Jean-Luc55BEL1:13:131:13:375:16 11.41281422BRUXELLES
60.1985GUTIERREZ Angel51FRAOBJ1:13:361:14:075:18 11.33288412MARLY
61.966GRANDFILS Eric56FRASPIBO1:14:281:14:585:22 11.21297392BELLIGNIES
62.755VAN HEULENBERGHE Frank57BEL1:14:411:14:585:22 11.21298389GENT
63.309CHARLIER Guy54BELCSFMYSTERE1:14:571:15:135:23 11.17302382UCCLE
64.1951VERMEULEN Bernard55BELOXYGENE TRIATHLON CLUB1:14:391:15:145:23 11.17303385
65.166HOUNJE Freddy59BEL1:14:451:15:185:23 11.16304384AUBEL
66.590BALSAT Philippe50BEL1:14:501:15:225:23 11.15306381HAVRE
67.1946BATTARD Alain54BELRBDB1:16:131:16:225:28 11.00323349
68.1818VREUX Vincent50BEL1:16:001:16:335:29 10.97325351JURBISE
69.1753DIRICQ Dominique54BELNAC1:16:151:16:465:29 10.94326347OBAIX
70.1967CILIBERTO Emmanuel56ITATOTAL1:16:351:17:005:30 10.91328340
71.1974DASSY Henri59BEL1:16:221:17:015:31 10.91329342
72.40COMANDINI Luciano57BELUACRRTC1:16:461:17:245:32 10.85334333MONTIGNIES-SUR-SAMBRE
73.208BOUTEFEU Jacques53BELESMRRTC1:16:471:17:255:32 10.85335332FARCIENNES
74.1825SOYEUR Jean-Luc55BELET ENGHIEN1:17:471:18:115:36 10.74343313
75.841SALVATO Domenico50ITACSFMYSTERE1:17:581:18:135:36 10.74344309BRUXELLES
76.1892DE FRE Hans50BELLASMELMOL1:18:031:18:385:37 10.68355300
77.381BRICOULT David50BELFLEUESM1:18:191:18:425:38 10.67356296MONT SUR MARCHIENNE
78.240FONTAINE Bernard50BELKURISTO1:19:121:19:225:41 10.58360281BRUXELLES
79.1991NOISET Pierre50BELGAG1:19:051:19:335:41 10.56363281
80.318STICKER Johan54BELOXYGENE1:19:511:20:265:45 10.44377260BIERCEE
81.356SAUCIN Luc52BELRRTC1:20:041:20:415:46 10.41381254CHATELET
82.504MICHEL Daniel55BELRIWA1:20:101:20:445:46 10.41382252RIXENSART
83.870CUVELIER Luc55BELTORTUES MESLINOISES1:21:141:21:235:49 10.32383237BASSILLY
84.91GEERAERTS Jos53BELCSFMYSTERE1:20:591:21:285:50 10.31384240BUIZINGEN
85.1943BIRENBAUM Alain54BEL1:21:291:21:555:52 10.26386232WOLVERTEM
86.869GENOT Yves57BELENJAMBEE1:21:501:22:135:53 10.22391224KRAINEM
87.1845WIBAUT Claude57BEL1:23:161:23:365:59 10.05406194
88.299DORVAL Roland50BELFCHA1:23:361:23:526:00 10.02410187MEEFFE
89.1960GOEMINNE Pascal56BEL1:25:111:25:446:08 9.80418161
90.1947SARTI Mauro52ITATOTAL1:26:061:26:306:11 9.71420149CHIEVRES
91.1802TOURNAY Michel51BELJCPMF1:27:001:27:336:16 9.60425134LIBERCHIES
92.1827MATTIOLI Jean-Marie58FRAJC BRACQUEGNIES1:29:301:30:016:26 9.3343497ARRAS
93.273BODET Michel56BELHRC1:31:061:31:396:33 9.1743677NEUFCHATEAU
94.1957BONTE Philippe56BELJOGGANS1:31:471:32:256:37 9.0943867BRUXELLES
95.1979SCULIER Claude55BEL1:32:471:33:236:41 9.0044054
96.1826VAN NAMEN Jean50BEL1:37:031:37:416:59 8.604499WOLUWE ST PIERRE
97.249PIRSON Patrice56BELJOGGANS1:39:271:40:047:09 8.394545GEDINNE
DNF: did not finish; DSQ: disqualified; Speed in km/h
Page: [1]